Glens Falls, NY

3:41 PM EST on November 18, 2019 (GMT -0500)
Bennett Memorial

Weather History for KGFL - September, 2019

Change the Weather History Date:

Sunday, September 22, 2019

  Actual Average Record
Temperature  
Mean Temperature 64 °F 56 °F  
Max Temperature 83 °F 68 °F 91 °F (1914)
Min Temperature 45 °F 44 °F 29 °F (1962)
Degree Days  
Heating Degree Days 1 9  
Month to date heating degree days 137 130  
Since 1 July heating degree days 165 196  
Cooling Degree Days 0 0  
Month to date cooling degree days 12 23  
Year to date cooling degree days 407 350  
Growing Degree Days 14 (Base 50)    
Moisture  
Dew Point 51 °F    
Average Humidity 75    
Maximum Humidity 100    
Minimum Humidity 50    
Precipitation  
Precipitation 0.00 in 0.13 in 2.82 in (1981)
Month to date precipitation 1.06 2.41  
Year to date precipitation 29.85 28.22  
Sea Level Pressure  
Sea Level Pressure 30.11 in    
Wind  
Wind Speed 5 mph (South)    
Max Wind Speed 14 mph    
Max Gust Speed 19 mph    
Visibility 4 miles    
Events Fog    
T = Trace of Precipitation, MM = Missing Value Source: NWS Daily Summary

Daily Weather History Graph

Daily Weather History Graph

Search for Another Location

Airport or City:

Astronomy

Sep. 22, 2019 Rise Set
Actual Time 6:41 AM EDT 6:52 PM EDT
Civil Twilight 6:12 AM EDT 7:20 PM EDT
Nautical Twilight 5:39 AM EDT 7:54 PM EDT
Astronomical Twilight 5:05 AM EDT 8:28 PM EDT
Moon No Moon Rise 2:55 PM EDT (9/22)
Length of Visible Light 13h 07m
Length of Day
12h 10m
Last Quarter, 44% of the Moon is Illuminated
Sep 22
Last Quarter
Sep 28
New
Oct 5
First Quarter
Oct 13
Full
Oct 21
Last Quarter

Hourly Weather History & Observations

Time (EDT) Temp. Heat Index Dew Point Humidity Pressure Visibility Wind Dir Wind Speed Gust Speed Precip Events Conditions
12:15 AM 51.1 °F - 50.0 °F 96% 30.16 in 1.8 mi Calm Calm - N/A   Partly Cloudy
12:17 AM 51.1 °F - 50.0 °F 96% 30.16 in 4.0 mi Calm Calm - N/A   Partly Cloudy
12:42 AM 50.0 °F - 48.9 °F 96% 30.16 in 1.5 mi Calm Calm - N/A   Clear
12:51 AM 50.0 °F - 48.2 °F 94% 30.16 in 0.5 mi Calm Calm - N/A Fog Fog
12:53 AM 48.9 °F - 48.9 °F 100% 30.16 in 0.5 mi Calm Calm - N/A Fog Fog
1:07 AM 50.0 °F - 48.9 °F 96% 30.15 in 0.5 mi Calm Calm - N/A Fog Fog
1:22 AM 48.9 °F - 48.0 °F 97% 30.15 in 2.5 mi Calm Calm - N/A   Mostly Cloudy
1:29 AM 48.9 °F - 48.0 °F 97% 30.15 in 10.0 mi Calm Calm - N/A   Mostly Cloudy
1:39 AM 48.0 °F - 46.0 °F 93% 30.15 in 10.0 mi Calm Calm - N/A   Scattered Clouds
1:50 AM 50.0 °F - 48.2 °F 94% 30.15 in 1.8 mi Calm Calm - N/A   Scattered Clouds
1:51 AM 50.0 °F - 48.2 °F 94% 30.15 in 1.8 mi Calm Calm - N/A   Mostly Cloudy
1:53 AM 48.9 °F - 48.0 °F 97% 30.15 in 1.8 mi Calm Calm - N/A   Mostly Cloudy
2:08 AM 48.9 °F - 48.0 °F 97% 30.15 in 0.5 mi Calm Calm - N/A Fog Fog
2:26 AM 46.9 °F - 46.0 °F 97% 30.15 in 2.5 mi Calm Calm - N/A   Overcast
2:33 AM 48.0 °F - 46.9 °F 96% 30.15 in 0.8 mi Calm Calm - N/A   Mist
2:53 AM 46.9 °F - 46.0 °F 97% 30.15 in 0.5 mi Calm Calm - N/A Fog Fog
3:08 AM 48.0 °F - 46.0 °F 93% 30.14 in 0.2 mi Calm Calm - N/A Fog Fog
3:16 AM 48.0 °F - 46.9 °F 96% 30.14 in 0.8 mi Calm Calm - N/A   Mist
3:31 AM 46.9 °F - 46.0 °F 97% 30.15 in 2.5 mi Calm Calm - N/A   Overcast
3:41 AM 48.0 °F - 46.9 °F 96% 30.15 in 0.8 mi Calm Calm - N/A   Mist
3:53 AM 46.9 °F - 46.0 °F 97% 30.15 in 0.5 mi Calm Calm - N/A Fog Fog
4:05 AM 48.0 °F - 46.0 °F 93% 30.15 in 2.0 mi Calm Calm - N/A   Overcast
4:12 AM 48.0 °F - 46.0 °F 93% 30.15 in 10.0 mi Calm Calm - N/A   Overcast
4:19 AM 46.9 °F - 46.0 °F 97% 30.15 in 1.2 mi Calm Calm - N/A   Overcast
4:26 AM 46.9 °F - 46.0 °F 97% 30.15 in 0.2 mi Calm Calm - N/A Fog Fog
4:42 AM 46.9 °F - 46.0 °F 97% 30.15 in 1.0 mi Calm Calm - N/A   Mist
4:53 AM 48.0 °F - 46.9 °F 96% 30.16 in 0.5 mi Calm Calm - N/A Fog Fog
5:02 AM 46.0 °F - 45.0 °F 96% 30.15 in 0.2 mi Calm Calm - N/A Fog Fog
5:15 AM 46.9 °F - 45.0 °F 93% 30.15 in 0.8 mi Calm Calm - N/A   Mist
5:20 AM 46.0 °F - 46.0 °F 100% 30.15 in 2.5 mi Calm Calm - N/A   Mostly Cloudy
5:31 AM 46.9 °F - 46.0 °F 97% 30.15 in 5.0 mi Calm Calm - N/A   Scattered Clouds
5:53 AM 46.9 °F - 46.0 °F 97% 30.16 in 4.0 mi Calm Calm - N/A   Mostly Cloudy
5:58 AM 46.9 °F - 46.0 °F 97% 30.15 in 1.8 mi Calm Calm - N/A   Mostly Cloudy
6:07 AM 46.9 °F - 46.0 °F 97% 30.15 in 2.0 mi Calm Calm - N/A   Scattered Clouds
6:10 AM 46.0 °F - 46.0 °F 100% 30.15 in 4.0 mi Calm Calm - N/A   Mostly Cloudy
6:23 AM 46.9 °F - 46.0 °F 97% 30.15 in 2.5 mi Calm Calm - N/A   Mostly Cloudy
6:36 AM 46.9 °F - 46.0 °F 97% 30.15 in 1.8 mi Calm Calm - N/A   Scattered Clouds
6:46 AM 46.0 °F - 46.0 °F 100% 30.15 in 0.8 mi Calm Calm - N/A   Mist
6:53 AM 46.9 °F - 46.0 °F 97% 30.16 in 0.5 mi Calm Calm - N/A Fog Fog
6:57 AM 46.9 °F - 46.0 °F 97% 30.15 in 1.0 mi Calm Calm - N/A   Clear
7:06 AM 45.0 °F - 45.0 °F 100% 30.15 in 0.2 mi Calm Calm - N/A Fog Fog
7:18 AM 48.0 °F - 46.9 °F 96% 30.15 in 1.2 mi Calm Calm - N/A   Scattered Clouds
7:21 AM 48.0 °F - 48.0 °F 100% 30.15 in 3.0 mi Calm Calm - N/A   Scattered Clouds
7:53 AM 51.1 °F - 48.9 °F 92% 30.16 in 10.0 mi Calm Calm - N/A   Partly Cloudy
8:53 AM 59.0 °F - 55.0 °F 87% 30.15 in 10.0 mi South 6.9 mph - N/A   Clear
9:53 AM 64.0 °F - 55.0 °F 73% 30.14 in 10.0 mi South 9.2 mph - N/A   Clear
10:53 AM 69.1 °F - 55.9 °F 63% 30.12 in 10.0 mi SSE 8.1 mph - N/A   Clear
11:53 AM 73.9 °F - 57.9 °F 57% 30.09 in 10.0 mi Variable 5.8 mph - N/A   Clear
12:53 PM 77.0 °F - 57.9 °F 52% 30.06 in 10.0 mi South 9.2 mph - N/A   Clear
1:53 PM 79.0 °F - 60.1 °F 52% 30.04 in 10.0 mi South 10.4 mph - N/A   Clear
2:53 PM 82.0 °F 83.0 °F 62.1 °F 51% 30.01 in 10.0 mi South 11.5 mph - N/A   Clear
3:53 PM 82.9 °F 84.0 °F 63.0 °F 51% 29.98 in 10.0 mi SSW 11.5 mph 17.3 mph N/A   Clear
4:53 PM 82.0 °F 83.0 °F 62.1 °F 51% 29.96 in 10.0 mi SSW 12.7 mph - N/A   Clear
5:53 PM 80.1 °F 81.7 °F 64.0 °F 58% 29.96 in 10.0 mi South 6.9 mph - N/A   Clear
6:53 PM 77.0 °F - 64.0 °F 64% 29.95 in 10.0 mi Calm Calm - N/A   Scattered Clouds
7:53 PM 69.1 °F - 64.0 °F 84% 29.95 in 10.0 mi Calm Calm - N/A   Clear
8:53 PM 66.9 °F - 63.0 °F 87% 29.94 in 10.0 mi Calm Calm - N/A   Clear
9:46 PM 64.9 °F - 64.0 °F 97% 29.92 in 1.8 mi Calm Calm - N/A   Clear
9:53 PM 64.0 °F - 62.1 °F 93% 29.93 in 2.5 mi Calm Calm - N/A   Clear
10:00 PM 64.9 °F - 62.1 °F 90% 29.92 in 10.0 mi Calm Calm - N/A   Clear
10:53 PM 64.9 °F - 61.0 °F 87% 29.91 in 10.0 mi Calm Calm - N/A   Clear
11:53 PM 72.0 °F - 64.0 °F 76% 29.90 in 10.0 mi SSW 10.4 mph - N/A   Clear